Regional Weather Roundup
Issued by NWS Raleigh/Durham, NC

Home | Current Version | Previous Version | Text Only | Print | Product List | Glossary On
Versions: 1 2 3 4 5 6 7 8 9 10 11 12 13 14 15 16 17 18 19 20 21 22 23 24 25 26 27 28 29 30 31 32 33 34 35 36 37 38 39 40 41 42 43 44 45 46 47 48
000
ASUS42 KRAH 260210
RWRRAH
NORTH CAROLINA WEATHER ROUNDUP
NATIONAL WEATHER SERVICE RALEIGH NC
1000 PM EDT SAT APR 25 2015

NOTE: "FAIR" INDICATES FEW OR NO CLOUDS BELOW 12,000 FEET WITH NO
SIGNIFICANT WEATHER AND/OR OBSTRUCTIONS TO VISIBILITY.

NCZ001-053-055-056-065-067-260300-
WESTERN NORTH CAROLINA

CITY           SKY/WX    TMP DP  RH WIND       PRES   REMARKS
ASHEVILLE      PTCLDY    60  56  86 SE6       29.62S
JEFFERSON      CLOUDY    49  49 100 CALM      29.63S FOG
MORGANTON      CLOUDY    50  50 100 CALM      29.68S FOG
HICKORY        CLOUDY    50  48  93 E3        29.64S FOG
RUTHERFORDTON  CLOUDY    55  55  99 CALM      29.63R
MOUNT AIRY     CLOUDY    46  44  93 E6        29.68F
BOONE          PTCLDY    51  51  99 CALM      29.64S
$$

NCZ021-022-025-041-071-084-088-260300-
CENTRAL NORTH CAROLINA

CITY           SKY/WX    TMP DP  RH WIND       PRES   REMARKS
CHARLOTTE      CLOUDY    57  54  89 N9        29.63F FOG
GREENSBORO     DRIZZLE   45  44  97 NE10      29.66S FOG
WINSTON-SALEM  CLOUDY    45  43  93 NE7       29.68S FOG
RALEIGH-DURHAM LGT RAIN  51  50  96 NE7       29.65S VSB 1/2
FORT BRAGG     CLOUDY    59  59 100 N5        29.60F
FAYETTEVILLE   CLOUDY    61  60  97 N5        29.60F
BURLINGTON     CLOUDY    47  45  93 N8        29.67R FOG
LAURINBURG     CLOUDY    61  60  97 CALM      29.61F FOG
$$

NCZ011-015-027-028-043-044-047-080-103-260300-
NORTHEASTERN NORTH CAROLINA

CITY           SKY/WX    TMP DP  RH WIND       PRES   REMARKS
ROCKY MT-WILSO CLOUDY    55  54  96 NE5       29.64S FOG
GREENVILLE     CLOUDY    55  55 100 CALM      29.66F
WASHINGTON     DRIZZLE   54  53  96 NE6       29.63F
ELIZABETH CITY CLOUDY    50  48  93 E10       29.66F
MANTEO         RAIN      52  51  96 NE8       29.67F
CAPE HATTERAS  LGT RAIN  56  56 100 NE7       29.63F
$$

NCZ078-087-090-091-093-098-101-260300-
SOUTHEASTERN NORTH CAROLINA

CITY           SKY/WX    TMP DP  RH WIND       PRES   REMARKS
LUMBERTON      MOCLDY    63  62  97 CALM      29.60F FOG
GOLDSBORO      CLOUDY    57 N/A N/A NE1       29.60F
KENANSVILLE    CLOUDY    59  58  95 CALM      29.61F
NEW BERN       CLOUDY    60  57  89 NE8       29.62F
CHERRY POINT   CLOUDY    60  58  92 CALM      29.61F
BEAUFORT       CLOUDY    62  61  96 CALM      29.59F
JACKSONVILLE   MOCLDY    63  60  90 CALM      29.59F
WILMINGTON     CLOUDY    69  66  90 SW10      29.60S
$$




USA.gov is the U.S. government's official web portal to all federal, state and local government web resources and services.